Regional Weather Roundup
Issued by NWS Northern Indiana

Home | Current Version | Previous Version | Graphics & Text | Print | Product List | Glossary On
Versions: 1 2 3 4 5 6 7 8 9 10 11 12 13 14 15 16 17 18 19 20 21 22 23 24 25 26 27 28 29 30 31 32 33 34 35 36 37 38 39 40 41 42 43 44 45 46 47 48 49 50
000
ASUS43 KIWX 292200
RWRIWX

KIWX WEATHER ROUNDUP
NATIONAL WEATHER SERVICE NORTHERN INDIANA
600 PM EDT WED JUL 29 2015

NOTE: "FAIR" INDICATES FEW OR NO CLOUDS BELOW 12,000 FEET WITH NO
SIGNIFICANT WEATHER AND/OR OBSTRUCTIONS TO VISIBILITY.

* THESE STATIONS ARE NOT UNDER NWS QUALITY CONTROL. THEY ALSO MAY NOT
  REPORT WEATHER SUCH AS PRECIPITATION OR FOG.

INZ001>027-292300-
NORTHERN INDIANA

CITY           SKY/WX    TMP DP  RH WIND       PRES   REMARKS
GARY*          MOSUNNY   88  59  37 NE6       29.96S
SOUTH BEND     SUNNY     85  60  42 NW12      29.97R
GOSHEN         SUNNY     83  65  54 NW13      29.95R
ANGOLA*        PTSUNNY   84  81  89 NW9       29.94S HX  98
FORT WAYNE     PTSUNNY   87  75  67 W9G18     29.94R HX  96

$$
INZ028>050-292300-
CENTRAL INDIANA

CITY           SKY/WX    TMP DP  RH WIND       PRES   REMARKS
LAFAYETTE      MOSUNNY   86  73  65 NW12      29.96R
KOKOMO*        PTSUNNY   88  73  62 NW13      29.95R HX  96
MUNCIE*        PTSUNNY   85  75  72 W12       29.96R
INDIANAPOLIS   CLOUDY    85  75  72 NW7       29.95F

$$
MIZ043>046-050>051-056>058-064>065-071>073-077>080-292300-
SOUTHWEST LOWER MICHIGAN

CITY           SKY/WX    TMP DP  RH WIND       PRES   REMARKS
BATTLE CREEK   SUNNY     84  61  45 W14G20    29.94S
BENTON HARBOR  SUNNY     82  62  50 W10       29.95S
COLDWATER*     PTSUNNY   83  67  58 NW14      29.94R
HILLSDALE*     PTSUNNY   85  74  70 W13       29.93S
HOLLAND        SUNNY     81  62  52 W13G20    29.94S
GRAND RAPIDS   MOSUNNY   84  51  31 W20G28    29.92S
KALAMAZOO      SUNNY     84  59  42 NW12      29.94S
STURGIS*       SUNNY     81  66  61 NW9       29.95R
THREE RIVERS*  FAIR      83  59  44 NW13      29.95S

$$
OHZ001>008-015>018-024>025-292300-
NORTHWEST OHIO

CITY           SKY/WX    TMP DP  RH WIND       PRES   REMARKS
DEFIANCE       MOSUNNY   90  75  61 W8        29.90S HX 100
FINDLAY        CLOUDY    80  75  84 SW8       29.92S
TOLEDO EXPRESS LGT RAIN  75  74  96 S3        29.91F FOG
TOLEDO METCALF CLOUDY    78  72  81 SW7       29.91F
LIMA           CLOUDY    79  73  82 SW6       29.94S

$$
AND FOR LAKE MICHIGAN COASTAL AND OPEN LAKE BUOY OBSERVATIONS

STATION/POSITION TEMP    WIND        PRES    VSBY  WAVE
                 AIR SEA DIR/SP/G                  HT/PER
                 (F)     (DEG/KT/KT) (MB)    (MI)  (FT/S)
CALUMET HARBOR    78                   N/A
MICHIGAN CITY     80        CALM       N/A
BURNS HARBOR      82      40/  4/  4 1014.9F
SAINT JOSEPH      81     200/  4/  5 1015.2F
4 MI NW BRIDGMAN  77 76  330/  4/  6   N/A           1/ 3
MICHIGAN CITY     79 77   CALM  /  2   N/A           1
MICHIGAN CITY CG  81 72  320/  2       N/A       6   1

$$
&&



USA.gov is the U.S. government's official web portal to all federal, state and local government web resources and services.